BY70-2
1 45857U 20042B 23068.78336999 .00035073 00000-0 40030-2 0 9997
2 45857 97.9307 148.6397 0008778 326.9178 33.1655 14.85951628144753
UPMSat 2
1 46276U 20061E 23068.18906467 .00016066 00000-0 71808-3 0 9990
2 46276 97.3581 137.9382 0001010 37.0801 323.0504 15.21405913139072
AmicalSat
1 46287U 20061R 23068.12768072 .00040528 00000-0 20381-2 0 9993
2 46287 97.4124 136.6645 0003389 91.9241 268.2381 15.17109744138524
SALSAT
1 46495U 20068K 23067.80633787 .00012522 00000-0 84848-3 0 9991
2 46495 97.7596 14.8973 0017692 99.8004 260.5222 15.06482878133959
BY70-3
1 46839U 20079N 23068.81375103 .00326333 00000-0 20753-2 0 9994
2 46839 97.1566 145.5305 0001629 200.0151 253.8821 15.75533543131382
CAPE 3
1 47309U 21002A 23068.76342404 .00053135 00000-0 15753-2 0 9997
2 47309 60.6787 81.5845 0033948 124.0477 236.3846 15.33907195118995
AO-109
1 47311U 21002C 23068.73272360 .00044893 00000-0 13709-2 0 9990
2 47311 60.6815 79.3156 0032156 120.9581 239.4678 15.33101100119014
MiTEE 1
1 47314U 21002F 23068.70254195 .00170762 00000-0 27772-2 0 9996
2 47314 60.6743 59.2492 0027474 106.9449 253.4666 15.51355051119368
ExoCube 2
1 47319U 21002L 23068.75254265 .00043550 00000-0 13555-2 0 9992
2 47319 60.6799 81.0157 0032734 122.9286 237.4961 15.32490584118940
UVSQ-SAT
1 47438U 21006AB 23068.14955090 .00027496 00000-0 12432-2 0 9999
2 47438 97.3987 126.8654 0011749 77.8248 282.4302 15.20837027117422
YUSAT 1
1 47439U 21006AC 23068.76871970 .00040605 00000-0 17494-2 0 9992
2 47439 97.3995 127.9161 0011009 75.0311 285.2144 15.22407251117549
SOMP 2b
1 47445U 21006AJ 23068.15950564 .00026541 00000-0 12215-2 0 9998
2 47445 97.3962 126.2699 0011601 81.8602 278.3948 15.20235589117405
IDEASSat
1 47458U 21006AX 23068.10900800 .00042478 00000-0 19687-2 0 9992
2 47458 97.4050 126.9494 0010819 81.2346 279.0114 15.19894487117383
CubeSX-Sirius-HSE
1 47951U 21022V 23068.77987032 .00019218 00000-0 11441-2 0 9999
2 47951 97.5093 327.8489 0018685 322.0095 108.9947 15.11114584108009
CubeSX-HSE
1 47952U 21022W 23068.75873075 .00018645 00000-0 11084-2 0 9995
2 47952 97.5084 327.8668 0018856 322.0043 116.9674 15.11169988108006
KSU-Cubesat
1 47954U 21022Y 23068.77841613 .00024979 00000-0 14585-2 0 9998
2 47954 97.5088 328.1451 0017824 321.8801 38.1167 15.11772355107749
GRBAlpha
1 47959U 21022AD 23068.75130686 .00018637 00000-0 11063-2 0 9994
2 47959 97.5083 327.9249 0018674 322.4579 122.8942 15.11228163106827
Orbicraft-Zorkiy
1 47960U 21022AE 23068.81372157 .00020226 00000-0 11847-2 0 9991
2 47960 97.5112 328.2924 0018401 321.4499 124.9537 15.11696466107531
STECCO
1 47962U 21022AG 23068.75570029 .00033042 00000-0 17226-2 0 9991
2 47962 97.5086 329.8838 0013034 315.6377 129.6588 15.15823241106951
DO-111
1 47963U 21022AH 23067.18118740 .00116961 00000-0 37379-2 0 9999
2 47963 97.5105 332.4383 0007862 315.2652 44.7954 15.31943910106995
MO-110
1 47964U 21022AJ 23068.77075490 .00042001 00000-0 21463-2 0 9990
2 47964 97.5092 330.3709 0014437 309.8361 50.1601 15.16452767106989
FEES
1 48082U 21022AL 23068.78194490 .00064361 00000-0 29770-2 0 9997
2 48082 97.5092 330.8915 0010018 308.4633 51.5703 15.19850382106721
CSS
1 48274U 21035A 23068.84799630 .00028173 00000-0 31647-3 0 9996
2 48274 41.4751 41.8295 0001888 40.3328 44.4048 15.61982939106298
TUBIN
1 48900U 21059X 23068.81181381 .00016650 00000-0 83767-3 0 9990
2 48900 97.5816 202.0212 0008995 264.0196 254.3700 15.17265654 94092
IT-SPINS
1 49017U 21013G 23068.75177839 .00057858 00000-0 16514-2 0 9996
2 49017 51.5947 203.8669 0008711 314.2031 45.8235 15.35434689 94399
LEDSAT
1 49069U 21073D 23068.73300154 .00020443 00000-0 11803-2 0 9991
2 49069 97.4924 141.3894 0026361 104.0345 256.3818 15.12056792 85868
CUTE
1 49263U 21088D 23068.73118122 .00020958 00000-0 14190-2 0 9998
2 49263 97.5555 136.3475 0018089 239.6257 120.3183 15.06384614 79306
TeikyoSat 4
1 49396U 21102B 23068.73535715 .00004629 00000-0 35915-3 0 9999
2 49396 97.5307 123.7680 0016678 77.0307 283.2779 15.01733528 72847
Z-Sat
1 49399U 21102E 23068.78473721 .00007727 00000-0 56023-3 0 9990
2 49399 97.4970 124.9163 0023239 50.5690 309.7588 15.03985295 72941
KOSEN 1
1 49402U 21102H 23068.76739538 .00011236 00000-0 78104-3 0 9998
2 49402 97.4914 125.2565 0022018 40.7629 319.5241 15.05479013 72999
HO-113
1 50466U 21131B 23068.79660841 .00001562 00000-0 52311-3 0 9998
2 50466 98.5564 150.6510 0005533 84.9848 275.1971 14.38730904 63061
Tevel-3
1 50988U 22002E 23068.72842443 .00032842 00000-0 14940-2 0 9998
2 50988 97.4463 136.6230 0008540 214.7387 241.5637 15.20618080 63621
Tevel-8
1 50989U 22002F 23068.80858244 .00032881 00000-0 14981-2 0 9992
2 50989 97.4483 136.7492 0008799 213.2394 241.1749 15.20562666 63632
Tevel-5
1 50998U 22002Q 23068.78734164 .00033993 00000-0 15161-2 0 9999
2 50998 97.4454 136.9593 0010013 210.1295 245.9915 15.21275764 63652
Tevel-6
1 50999U 22002R 23068.79116897 .00034018 00000-0 15169-2 0 9995
2 50999 97.4456 136.9599 0009943 209.7756 274.5012 15.21282793 63653
Tevel-1
1 51013U 22002AF 23068.01633196 .00032130 00000-0 14655-2 0 9996
2 51013 97.4466 135.8748 0008458 216.1856 265.4926 15.20533416 63517
Grizu-263a
1 51025U 22002AT 23068.73828584 .00106732 00000-0 35747-2 0 9990
2 51025 97.4612 139.7646 0010519 213.9737 146.0831 15.30453560 63776
NO-116
1 51031U 22002AZ 23068.12026779 .00092080 00000-0 36485-2 0 9996
2 51031 97.4577 137.8969 0011076 217.1599 142.8873 15.24970781 63616
IRIS-A
1 51044U 22002BN 23068.16463912 .00017697 00000-0 89563-3 0 9995
2 51044 97.4468 135.2510 0007940 220.1291 139.9356 15.17047613 63480
Tevel-7
1 51062U 22002CG 23068.81039743 .00033012 00000-0 15037-2 0 9991
2 51062 97.4473 136.7273 0008700 213.6281 240.6190 15.20571463 63631
Tevel-4
1 51063U 22002CH 23068.74800039 .00032793 00000-0 14955-2 0 9991
2 51063 97.4479 136.6559 0008521 214.5684 240.5403 15.20532973 63620
Tevel-2
1 51069U 22002CP 23068.32963975 .00032494 00000-0 14795-2 0 9990
2 51069 97.4472 136.2045 0008351 215.5671 208.7949 15.20590041 63567
DELFI-PQ
1 51074U 22002CU 23068.64996531 .00070857 00000-0 26186-2 0 9997
2 51074 97.4711 140.1929 0011003 242.7468 117.2651 15.27392731 63767
SO-115
1 51080U 22002DA 23067.16095766 .00034976 00000-0 14639-2 0 9992
2 51080 97.4727 137.9684 0011035 251.4361 108.5677 15.23424300 63481
SO-114
1 51081U 22002DB 23067.42033110 .00034722 00000-0 14485-2 0 9995
2 51081 97.4719 138.1902 0011427 250.4580 109.5423 15.23533340 63526
OreSat0
1 52017U 22026K 23068.77063943 .00036418 00000-0 16334-2 0 9996
2 52017 97.5113 71.1323 0026844 74.5244 285.8953 15.20785013 54416
Planetum 1
1 52738U 22057G 23068.79686745 .00029089 00000-0 14735-2 0 9992
2 52738 97.5272 185.1000 0006892 336.1217 23.9695 15.16917825 43570
Foresail-1
1 52766U 22057AL 23068.83487534 .00018685 00000-0 94537-3 0 9992
2 52766 97.5368 185.9429 0011816 316.0582 161.3027 15.17015018 43608
SNUGLITE 2
1 52899U 22065F 23067.89578285 .00005499 00000-0 11813-2 0 9991
2 52899 98.0513 215.6386 0008484 163.4109 196.7370 14.58935243 36231
CTIM
1 52950U 22074G 23068.73222376 .00064190 00000-0 19143-2 0 9997
2 52950 44.9677 191.4712 0011118 297.9508 62.0282 15.33804545 38286
